Regional Weather Roundup
Issued by NWS

Home | Current Version | Previous Version | Text Only | Print | Product List | Glossary Off
Versions: 1 2 3 4 5 6 7 8 9 10 11 12 13 14 15 16 17 18 19 20 21 22 23 24 25 26 27 28 29 30 31 32 33 34 35 36 37 38 39 40 41 42 43 44 45 46 47 48 49 50

000
ASUS43 KIND 290309
RWRIN

WEATHER ROUNDUP FOR INDIANA
NATIONAL WEATHER SERVICE INDIANAPOLIS IN
1000 PM EST WED JAN 28 2015

NOTE: "FAIR" INDICATES FEW OR NO CLOUDS BELOW 12,000 FEET WITH NO
SIGNIFICANT WEATHER AND/OR OBSTRUCTIONS TO VISIBILITY.

* - STATION DOES NOT REPORT WEATHER SUCH AS PRECIPITATION OR FOG.

+ - STATION NOT QUALITY CONTROLLED BY THE NATIONAL WEATHER SERVICE.
    USE DATA WITH CAUTION...ESPECIALLY DEWPOINT AND RELATIVE
    HUMIDITY OBSERVATIONS.

INZ001>003-010>013-019-020-290400-
NORTHWEST INDIANA

CITY           SKY/WX    TMP DP  RH WIND       PRES   REMARKS
GARY /AIRPORT/ CLOUDY    36  16  44 S14G29    29.92F
KNOX *+        CLOUDY    31   9  40 SE15G26   29.98F WCI  20
LA PORTE +     CLOUDY    32  22  67 S14G22    29.98F WCI  22
MICHIGAN CITY+ CLOUDY    32  16  51 S10G20    29.96F WCI  24
MONTICELLO +   CLOUDY    32  21  63 SE8       29.98F WCI  25
RENSSELAER +   CLOUDY    34  27  75 SE17G23   29.97S WCI  23
VALPARAISO     CLOUDY    31  20  63 S18G24    29.96F WCI  19

$$

LMZ046-743>745-290400-
SOUTHERN LAKE MICHIGAN

STATION/POSITION TIME  TEMP WIND        PRES
                       AIR  DIR/SP/G
                 (UTC) (F)  (DEG/KT/KT) (MB)
MICHIGAN CITY    0300   32  130/ 19/ 27   N/A

$$

INZ004-005-014>016-021>024-290400-
NORTH CENTRAL INDIANA

CITY           SKY/WX    TMP DP  RH WIND       PRES   REMARKS
GOSHEN         CLOUDY    28  18  66 SE17G25   30.02F WCI  16
LOGANSPORT +   CLOUDY    32  23  69 SE17      30.02F WCI  21
PERU/GRISSOM   CLOUDY    31  22  70 SE20      30.01F WCI  19
ROCHESTER +    CLOUDY    32  23  69 SE13G21   30.01F WCI  22
SOUTH BEND     CLOUDY    29  19  66 SE17      29.99F WCI  17
WARSAW +       CLOUDY    28  19  69 SE10G17   30.03F WCI  19

$$

INZ006>009-017-018-025>027-290400-
NORTHEAST INDIANA

CITY           SKY/WX    TMP DP  RH WIND       PRES   REMARKS
ANGOLA *+      CLEAR     23  16  74 SE12      30.07F WCI  12
AUBURN +       CLOUDY    27  18  69 SE8       30.09F WCI  18
FORT WAYNE     CLOUDY    26  18  71 SE13      30.08F WCI  15
HUNTINGTON +   CLOUDY    28  16  62 SE12      30.06F WCI  17

$$

INZ028-029-035-036-043>045-051>053-290400-
WEST CENTRAL INDIANA

CITY           SKY/WX    TMP DP  RH WIND       PRES   REMARKS
CRAWFORDSVL +  CLOUDY    32  13  46 SE20      30.00F WCI  20
GREENCASTLE +  MOCLDY    32  14  47 S15       30.04F WCI  22
LAFAYETTE      CLOUDY    33  19  56 S17G28    29.99F WCI  22
TERRE HAUTE    CLOUDY    35  20  54 SE14      30.01F WCI  26

$$

INZ030>032-037>040-046>048-054>057-064-065-290400-
CENTRAL INDIANA

CITY           SKY/WX    TMP DP  RH WIND       PRES   REMARKS
CP ATTERBURY + MOCLDY    32  19  59 SE13G20   30.10F WCI  22
GREENWOOD *+   CLOUDY    32  18  55 SE15G22   30.08  WCI  22
INDIANAPOLIS   CLOUDY    30  17  58 SE16      30.05F WCI  19
-EAGLE CREEK   CLOUDY    32  17  54 SE13G21   30.05F WCI  22
KOKOMO *+      CLOUDY    30  21  69 S18       30.03F WCI  18
MARION +       MOCLDY    30  20  66 S16       30.06F WCI  19
MT COMFORT *+  CLOUDY    32  12  43 SE16G22   30.07F WCI  21
SHELBYVILLE    MOCLDY    33  21  61 SE17      30.08F WCI  22
ZIONSVILLE +   CLOUDY    33  18  53 SE18G25   30.04F WCI  22

$$

INZ033-034-041-042-049-050-058-059-290400-
EAST CENTRAL INDIANA

CITY           SKY/WX    TMP DP  RH WIND       PRES   REMARKS
MUNCIE         MOCLDY    31  19  61 S14G23    30.07F WCI  21

$$

INZ060-061-067>069-081>083-085>088-290400-
SOUTHWEST INDIANA

CITY           SKY/WX    TMP DP  RH WIND       PRES   REMARKS
EVANSVILLE     PTCLDY    40  22  48 SE8       30.09F
HUNTINGBURG *+ PTCLDY    36  19  51 SE7       30.12R
WASHINGTON +   MOCLDY    36  19  49 SE15      30.05F

$$

INZ062-063-066-070>080-084-089>092-290400-
SOUTH CENTRAL AND SOUTHEAST INDIANA

CITY           SKY/WX    TMP DP  RH WIND       PRES   REMARKS
BLOOMINGTON    CLOUDY    34  17  50 S14G21    30.07F WCI  25
NORTH VERNON + PTCLDY    34  19  55 SE9       30.13F WCI  26

$$



USA.gov is the U.S. government's official web portal to all federal, state and local government web resources and services.